Date String (YYYY-MM-DD hh:mm:ss) UTC,Instrument flags,absolute air pressure of the measurement (hPa),sample flow rate (lpm),inlet stack bypass flow (lpm),air temperature of the measurement (°C),ambient temperature measured by the external sensor (°C),aerosol sample conditioner tube jacket temperature (°C),OPC LED temperature (°C),internal box temperature (°C),relative humidity of the measurement (%),span deviation,mass concentration of particles derived from Lorenz-Mie calculation of OPC scattering (μg/m³),mass concentration of particles derived from Lorenz-Mie calculation of OPC scattering (μg/m³),mass concentration of particles derived from Lorenz-Mie calculation of OPC scattering (μg/m³)
DateTimeUTC,F1_M11,P_M11,Q1_M11,Q2_M11,T1_M11,T2_M11,T3_M11,T4_M11,T5_M11,U1_M11,ZSPAN_M11,X2_M11,X0_M11,X1_M11
2024-01-10 04:00:00,SystemResetWarning,0812.6,5.00,000.00,018.7,017.3,000.0,027.2,020.0,11.4,0000.0,0000.48,0001.02,0000.29
2024-01-10 04:01:00,SystemResetWarning,0812.6,5.01,000.00,018.7,017.3,000.0,027.2,020.0,11.4,0000.0,0000.47,0000.98,0000.28
2024-01-10 04:02:00,SystemResetWarning,0812.6,5.00,000.00,018.7,017.2,000.0,027.2,020.0,11.4,0000.0,0000.45,0000.94,0000.28
2024-01-10 04:03:00,SystemResetWarning,0812.6,5.00,000.00,018.7,017.2,000.0,027.2,020.0,11.4,0000.0,0000.42,0000.86,0000.29
2024-01-10 04:04:00,SystemResetWarning,0812.6,5.01,000.00,018.7,017.2,000.0,027.2,020.0,11.4,0000.0,0000.43,0001.15,0000.28
2024-01-10 04:05:00,SystemResetWarning,0812.7,5.00,000.00,018.7,017.1,000.0,027.2,020.0,11.4,0000.0,0000.49,0003.51,0000.28
2024-01-10 04:06:00,SystemResetWarning,0812.7,4.99,000.00,018.7,017.1,000.0,027.2,020.0,11.4,0000.0,0000.63,0004.52,0000.29
2024-01-10 04:07:00,SystemResetWarning,0812.7,4.99,000.00,018.7,017.1,000.0,027.2,020.0,11.5,0000.0,0000.71,0004.98,0000.29
2024-01-10 04:08:00,SystemResetWarning,0812.7,5.00,000.00,018.7,017.1,000.0,027.2,020.0,11.5,0000.0,0000.74,0006.27,0000.29
2024-01-10 04:09:00,SystemResetWarning,0812.6,5.00,000.00,018.7,017.1,000.0,027.2,020.0,11.5,0000.0,0000.77,0007.59,0000.29
2024-01-10 04:10:00,SystemResetWarning,0812.6,5.01,000.00,018.7,017.1,000.0,027.2,020.0,11.5,0000.0,0000.79,0007.82,0000.29
2024-01-10 04:11:00,SystemResetWarning,0812.7,5.01,000.00,018.7,017.1,000.0,027.2,020.0,11.6,0000.0,0000.80,0008.38,0000.29
2024-01-10 04:12:00,SystemResetWarning,0812.7,5.01,000.00,018.7,017.1,000.0,027.2,020.0,11.6,0000.0,0000.89,0009.32,0000.29
2024-01-10 04:13:00,SystemResetWarning,0812.8,4.99,000.00,018.7,017.1,000.0,027.2,020.0,11.6,0000.0,0001.01,0011.53,0000.31
2024-01-10 04:14:00,SystemResetWarning,0812.7,4.99,000.00,018.7,017.0,000.0,027.2,020.0,11.6,0000.0,0001.11,0011.73,0000.32
2024-01-10 04:15:00,SystemResetWarning,0812.7,5.00,000.00,018.7,017.0,000.0,027.2,020.0,11.6,0000.0,0001.16,0011.78,0000.34
2024-01-10 04:16:00,SystemResetWarning,0812.8,5.00,000.00,018.7,017.0,000.0,027.2,020.0,11.6,0000.0,0001.17,0010.56,0000.36
2024-01-10 04:17:00,SystemResetWarning,0812.8,5.01,000.00,018.7,017.0,000.0,027.2,020.0,11.5,0000.0,0001.10,0011.41,0000.36
2024-01-10 04:18:00,SystemResetWarning,0812.7,5.01,000.00,018.7,017.0,000.0,027.2,020.0,11.5,0000.0,0001.07,0013.62,0000.36
2024-01-10 04:19:00,SystemResetWarning,0812.8,5.00,000.00,018.7,017.0,000.0,027.2,020.0,11.6,0000.0,0001.08,0013.14,0000.37
2024-01-10 04:20:00,SystemResetWarning,0812.8,4.99,000.00,018.7,017.0,000.0,027.2,020.0,11.6,0000.0,0001.09,0012.11,0000.37
2024-01-10 04:21:00,SystemResetWarning,0812.8,5.00,000.00,018.7,017.0,000.0,027.2,020.0,11.5,0000.0,0001.15,0012.62,0000.38
2024-01-10 04:22:00,SystemResetWarning,0812.8,5.00,000.00,018.7,016.9,000.0,027.2,020.0,11.6,0000.0,0001.18,0013.66,0000.39
2024-01-10 04:23:00,SystemResetWarning,0812.7,5.00,000.00,018.7,016.9,000.0,027.2,020.0,11.6,0000.0,0001.17,0013.25,0000.39
2024-01-10 04:24:00,SystemResetWarning,0812.8,5.01,000.00,018.7,017.0,000.0,027.1,020.2,11.7,0000.0,0001.14,0010.96,0000.38
2024-01-10 04:25:00,SystemResetWarning,0812.8,5.01,000.00,018.8,017.6,000.0,027.1,020.5,11.7,0000.0,0001.06,0010.82,0000.37
2024-01-10 04:26:00,SystemResetWarning,0812.8,4.99,000.00,018.9,018.4,000.0,027.1,020.7,11.6,0000.0,0001.02,0010.86,0000.36
2024-01-10 04:27:00,SystemResetWarning,0812.8,4.99,000.00,018.9,018.5,000.0,027.1,020.4,11.6,0000.0,0001.02,0010.75,0000.35
2024-01-10 04:28:00,SystemResetWarning,0812.9,4.99,000.00,018.9,018.4,000.0,027.1,020.2,11.6,0000.0,0000.93,0009.34,0000.35
2024-01-10 04:29:00,SystemResetWarning,0812.8,5.00,000.00,018.9,018.3,000.0,027.1,020.0,11.5,0000.0,0000.85,0006.39,0000.34
2024-01-10 04:30:00,SystemResetWarning,0812.8,5.00,000.00,018.8,018.1,000.0,027.1,020.0,11.5,0000.0,0000.82,0006.75,0000.34
2024-01-10 04:31:00,SystemResetWarning,0812.8,5.00,000.00,018.8,017.9,000.0,027.1,020.0,11.5,0000.0,0000.78,0007.38,0000.34
2024-01-10 04:32:00,SystemResetWarning,0812.8,5.00,000.00,018.8,017.7,000.0,027.1,020.0,11.5,0000.0,0000.71,0006.20,0000.33
2024-01-10 04:33:00,SystemResetWarning,0812.8,5.00,000.00,018.8,017.6,000.0,027.1,020.0,11.5,0000.0,0000.72,0003.81,0000.33
2024-01-10 04:34:00,SystemResetWarning,0812.8,5.01,000.00,018.8,017.5,000.0,027.1,020.0,11.5,0000.0,0000.71,0003.93,0000.33
2024-01-10 04:35:00,SystemResetWarning,0812.7,5.01,000.00,018.8,017.4,000.0,027.1,020.0,11.6,0000.0,0000.67,0005.20,0000.33
2024-01-10 04:36:00,SystemResetWarning,0812.8,5.00,000.00,018.7,017.4,000.0,027.1,020.0,11.6,0000.0,0000.67,0005.13,0000.34
2024-01-10 04:37:00,SystemResetWarning,0812.7,5.00,000.00,018.7,017.3,000.0,027.2,020.0,11.6,0000.0,0000.67,0005.09,0000.34
2024-01-10 04:38:00,SystemResetWarning,0812.7,5.00,000.00,018.7,017.2,000.0,027.2,020.0,11.6,0000.0,0000.62,0004.95,0000.33
2024-01-10 04:39:00,SystemResetWarning,0812.8,5.00,000.00,018.7,017.2,000.0,027.2,020.0,11.7,0000.0,0000.63,0005.02,0000.33
2024-01-10 04:40:00,SystemResetWarning,0812.9,5.00,000.00,018.7,017.1,000.0,027.2,020.0,11.8,0000.0,0000.70,0005.85,0000.34
2024-01-10 04:41:00,SystemResetWarning,0812.8,5.00,000.00,018.7,017.1,000.0,027.2,020.0,11.9,0000.0,0000.71,0005.49,0000.34
2024-01-10 04:42:00,SystemResetWarning,0812.8,5.00,000.00,018.7,017.1,000.0,027.2,020.0,11.9,0000.0,0000.72,0004.62,0000.35
2024-01-10 04:43:00,SystemResetWarning,0812.8,5.00,000.00,018.7,017.1,000.0,027.2,020.0,11.9,0000.0,0000.75,0005.44,0000.36
2024-01-10 04:44:00,SystemResetWarning,0812.8,5.00,000.00,018.7,017.0,000.0,027.2,020.0,11.9,0000.0,0000.70,0005.17,0000.36
2024-01-10 04:45:00,SystemResetWarning,0812.7,5.00,000.00,018.7,017.0,000.0,027.2,020.0,11.9,0000.0,0000.65,0004.68,0000.35
2024-01-10 04:46:00,SystemResetWarning,0812.7,4.99,000.00,018.7,017.0,000.0,027.2,020.0,11.7,0000.0,0000.59,0003.21,0000.34
2024-01-10 04:47:00,SystemResetWarning,0812.7,4.99,000.00,018.7,017.0,000.0,027.2,020.0,11.8,0000.0,0000.56,0002.80,0000.34
2024-01-10 04:48:00,SystemResetWarning,0812.6,5.00,000.00,018.7,017.0,000.0,027.2,020.0,11.7,0000.0,0000.53,0002.64,0000.33
2024-01-10 04:49:00,SystemResetWarning,0812.7,5.01,000.00,018.7,017.0,000.0,027.2,020.1,11.4,0000.0,0000.52,0002.60,0000.33
2024-01-10 04:50:00,SystemResetWarning,0812.7,4.99,000.00,018.8,017.6,000.0,027.1,020.4,11.5,0000.0,0000.51,0002.55,0000.33
2024-01-10 04:51:00,SystemResetWarning,0812.7,5.00,000.00,018.9,018.4,000.0,027.1,020.7,11.6,0000.0,0000.45,0002.11,0000.33
2024-01-10 04:52:00,SystemResetWarning,0812.6,5.00,000.00,018.9,018.6,000.0,027.1,020.5,11.7,0000.0,0000.44,0002.68,0000.34
2024-01-10 04:53:00,SystemResetWarning,0812.6,5.00,000.00,018.9,018.5,000.0,027.1,020.3,11.6,0000.0,0000.42,0002.63,0000.34
2024-01-10 04:54:00,SystemResetWarning,0812.6,4.99,000.00,018.9,018.3,000.0,027.1,020.0,11.4,0000.0,0000.42,0001.97,0000.33
2024-01-10 04:55:00,SystemResetWarning,0812.5,5.00,000.00,018.8,018.1,000.0,027.1,020.0,11.3,0000.0,0000.44,0001.65,0000.34
2024-01-10 04:56:00,SystemResetWarning,0812.4,5.00,000.00,018.8,017.9,000.0,027.1,020.0,11.2,0000.0,0000.46,0001.69,0000.34
2024-01-10 04:57:00,SystemResetWarning,0812.4,5.00,000.00,018.8,017.8,000.0,027.1,020.0,11.1,0000.0,0000.48,0001.72,0000.35
2024-01-10 04:58:00,SystemResetWarning,0812.5,5.00,000.00,018.8,017.7,000.0,027.1,020.0,11.0,0000.0,0000.50,0001.80,0000.35
2024-01-10 04:59:00,SystemResetWarning,0812.5,5.00,000.00,018.8,017.6,000.0,027.1,020.0,11.0,0000.0,0000.52,0001.90,0000.35
